Location: Unspecified
(0.0000°N, 0.0000°E)
Time: 16:39:56
(UTC+00:00)

Vanguard 3 - Pass Details

Date: 11 February 2023
Orbit: 509 x 3249 km, 33.3° (Epoch: 20 March)

Event Time Altitude Azimuth Distance (km) Brightness Sun altitude
Rises 23:41:34 0° 311° (NW) 5,955 - -73.7°
Reaches altitude 10° 23:45:01 10° 313° (NW) 5,234 - -74.1°
Maximum altitude 00:02:12 76° 38° (NE) 3,259 - -75.5°
Exits shadow 00:19:07 17° 120° (ESE) 5,375 11.2 -75.8°
Drops below altitude 10° 00:21:54 10° 121° (ESE) 5,899 11.5 -75.7°
Sets 00:26:03 0° 122° (ESE) 6,710 12.0 -75.5°
